User: anonymous   Login
Location: Unspecified
(0.0000°N, 0.0000°E)
Time: 03:02:37
(UTC+00:00)
Language:

DSP F14 - Orbit

View from above orbital plane
View from above orbital plane
View from above satellite
View from above satellite

Ground track
Ground track

The orbit data is extracted from the following two-line orbital elements,

1 20066U 89046A   18094.86575528 0.00000000  00000-0  00000-0 0    02
2 20066  14.7035   4.7175 0002508 298.3008  61.6859  0.98815635    05
Epoch (UTC): 04 April 2018 20:46:41
Eccentricity: 0.0002508
inclination: 14.7035°
perigee height: 36189 km
apogee height: 36210 km
right ascension of ascending node: 4.7175°
argument of perigee: 298.3008°
revolutions per day: 0.98815635
mean anomaly at epoch: 61.6859°
orbit number at epoch: 0

The dashed part of the orbit path shows where the satellite is in the earth's shadow,  

DLR